Flag for Antigua and Barbuda Weather past 2 weeks in Saint John's, Antigua and Barbuda

Now
84 °F

Scattered clouds.


Feels Like: 92 °F
Forecast: 81 / 87 °F
Wind: 15 mph from East

Location: Vc Bird International Antigua Airport

Current Time: Sep 21, 2014 at 8:35:08 AM

Latest Report: Sep 21, 2014 at 8:00 AM


Visibility: N/A

Pressure: 30.01 "Hg

Humidity: 74%

Dew point: 75 °F

Location of Saint John'sLocation

Historic Weather in Saint John's — Graph

°F

Saint John's temperature yesterday

Maximum temperature yesterday: 88 °F (at 1:00 PM)
Minimum temperature yesterday: 77 °F (at 7:00 PM)
Average temperature yesterday: 83 °F

Past Weeks' High & Low Weather Summary

 TemperatureHumidityPressure
High88 °F (Sep 8, 2:00 PM)94% (Sep 7, 9:00 PM)30.07 "Hg (Sep 7, 9:00 PM)
Low77 °F (Sep 6, 7:00 PM)59% (Sep 15, 11:00 AM)29.89 "Hg (Sep 11, 4:00 PM)
Average83 °F75%29.97 "Hg
* Reported Sep 6 7:00 AM — Sep 21 7:00 AM, Saint John's, Weather by CustomWeather, © 2014

Note: Actual official high and low records may vary slightly from our data, if they occured in-between our weather recording intervals... More about our weather records

Advertising

Saint John's weather history for previous 24 hours

 ConditionsComfort  
Time TempWeatherWind HumidityBarometerVisibility
7:00 AM
Sep 21
82 °FScattered clouds.13 mph79%29.95 "HgN/A
6:00 AM82 °FScattered clouds.13 mph74%29.95 "HgN/A
5:00 AM82 °FPassing clouds.12 mph74%29.92 "HgN/A
3:00 AM82 °FPassing clouds.13 mph74%29.92 "HgN/A
2:00 AM82 °FPassing clouds.13 mph79%29.95 "HgN/A
1:00 AM82 °FPassing clouds.12 mph79%29.98 "HgN/A
12:00 AM82 °FPassing clouds.13 mph79%29.98 "HgN/A
11:00 PM
Sep 20
82 °FPassing clouds.13 mph79%29.98 "HgN/A
10:00 PM82 °FPassing clouds.12 mph79%30.01 "HgN/A
9:00 PM81 °FThunderstorms. Partly cloudy.12 mph84%30.01 "HgN/A
8:00 PM79 °FPartly cloudy.5 mph89%29.98 "HgN/A
7:00 PM77 °FLots of rain. Passing clouds.18 mph83%29.98 "Hg5 mi
6:00 PM82 °FScattered showers. Broken clouds.13 mph79%29.95 "HgN/A
5:00 PM84 °FScattered clouds.10 mph74%29.95 "HgN/A
4:00 PM86 °FPartly sunny.13 mph70%29.95 "HgN/A
3:00 PM88 °FScattered clouds.13 mph62%29.95 "HgN/A
2:00 PM88 °FScattered clouds.13 mph66%29.95 "HgN/A
1:00 PM88 °FScattered showers. Partly sunny.13 mph66%29.95 "HgN/A
9:00 AM86 °FScattered clouds.10 mph70%29.98 "HgN/A
8:00 AM84 °FScattered clouds.12 mph74%29.98 "HgN/A
Weather by CustomWeather, © 2014

See weather overviewHow to use our weather pages